Content
SEND FEEDBACK

Daily
Averages
Monthly
Summary
United States of America

TUCSON, ARIZONA


Home > North America > United States > Arizona
Elevation: 2584 feet     Latitude: 32 08N     Longitude: 110 56W

WEATHER
 
SELECT A DAY
Number of Records: 110,348;   Date Range: 1/1/02 - 11/25/14
 
SHARE

PRINT THIS DATA

[ ← Previous Day ]
WEATHER ALMANAC - AUGUST 21, 2013
[ Next Day → ]
[ °C ]   °F
Weather ElementAverageHighLow
Temperature86.3 °F97 °F (3:53 pm)79 °F (4:53 am)
Dewpoint57.2 °F62.1 °F (6:53 am)52 °F (4:53 pm)
Humidity38.6 %56 % (6:53 am)23 % (3:53 pm)
Barometer29.84 in29.90 in (9:53 am)29.78 in (3:53 pm)
Wind Speed6.5 mph12.7 mph (5:53 pm)
Weather ElementAverage
Visibility10 mi
Wind DirectionSSE (173 °)

Weather ElementTotal
Precipitation---
Cooling Degree Days23 (Base 65)
Growing Degree Days38 (Base 50)
Averaged from 23 records on August 21, 2013
WEATHER CONDITIONS BREAKOUT
WIND DIRECTION BREAKOUT
WEATHER BY HOUR - AUGUST 21, 2013
[ °C ]   °F
Local TimeTemperatureDewpointHumidityBarometerVisibilityWind DirectionWind SpeedGust SpeedPrecipitationEventsConditions
1:53 AM81.0 °F57.9 °F45 %29.83 in10.0 miEast (100°)8.1 mphClear
2:53 AM80.1 °F59.0 °F48 %29.82 in10.0 miSSE (160°)6.9 mphPartly Cloudy
3:53 AM80.1 °F59.0 °F48 %29.84 in10.0 miSE (140°)10.4 mphClear
4:53 AM79.0 °F61.0 °F54 %29.84 in10.0 miSSE (150°)4.6 mphPartly Cloudy
5:53 AM79.0 °F60.1 °F52 %29.85 in10.0 miSSE (150°)11.5 mphPartly Cloudy
6:53 AM79.0 °F62.1 °F56 %29.87 in10.0 miSSE (150°)9.2 mphClear
7:53 AM81.0 °F60.1 °F49 %29.89 in10.0 miESE (120°)6.9 mphScattered Clouds
8:53 AM82.0 °F60.1 °F47 %29.89 in10.0 miESE (120°)6.9 mphOvercast
9:53 AM82.9 °F60.1 °F46 %29.90 in10.0 miCalmOvercast
10:53 AM84.9 °F60.1 °F43 %29.90 in10.0 miVariable4.6 mphScattered Clouds
11:53 AM88.0 °F60.1 °F39 %29.89 in10.0 miVariable3.5 mphPartly Cloudy
12:53 PM90.0 °F59.0 °F35 %29.87 in10.0 miWSW (240°)4.6 mphClear
1:53 PM91.9 °F55.9 °F30 %29.85 in10.0 miWNW (300°)5.8 mphClear
2:53 PM95.0 °F54.0 °F25 %29.81 in10.0 miWNW (300°)8.1 mphClear
3:53 PM97.0 °F53.1 °F23 %29.78 in10.0 miWest (270°)10.4 mphClear
4:53 PM95.0 °F52.0 °F23 %29.78 in10.0 miWNW (290°)9.2 mphClear
5:53 PM93.9 °F52.0 °F24 %29.78 in10.0 miNNW (340°)12.7 mphClear
6:53 PM91.9 °F53.1 °F27 %29.79 in10.0 miNNW (330°)10.4 mphPartly Cloudy
7:53 PM90.0 °F54.0 °F29 %29.81 in10.0 miNW (310°)3.5 mphClear
8:53 PM89.1 °F55.0 °F31 %29.83 in10.0 miCalmClear
9:53 PM86.0 °F57.0 °F37 %29.86 in10.0 miSouth (190°)3.5 mphClear
10:53 PM84.9 °F55.0 °F36 %29.87 in10.0 miSSE (150°)5.8 mphClear
11:53 PM84.0 °F57.0 °F40 %29.86 in10.0 miSouth (170°)3.5 mphClear
Hourly data recorded from KTUS, located miles away from Tucson, Arizona







STORIES FROM OUR PARTNERS